FW1222 Weather Reports


Display with metric or nautical units.
time (UTC)temp
F
wind
direction
speed
MPH
gust
MPH
rain 1hr
in
rain 24hr
in
rain mn
in
humidity
%
barometer
mb
20260505024533 64 133 0.0 0.0 0.00 0.00 0.00 39 1010.3
20260505023022 65 133 0.0 0.0 0.00 0.00 0.00 37 1010.0
20260505021522 66 133 0.0 0.0 0.00 0.00 0.00 35 1009.8
20260505020026 67 133 0.0 0.0 0.00 0.00 0.00 33 1009.5
20260505014510 68 133 0.0 0.0 0.00 0.00 0.00 31 1009.2
20260505013007 69 133 0.0 0.0 0.00 0.00 0.00 30 1009.1
20260505011504 71 133 0.0 0.0 0.00 0.00 0.00 30 1008.9
20260505004557 74 133 0.0 0.0 0.00 0.00 0.00 28 1008.9
20260505003051 75 133 0.0 0.0 0.00 0.00 0.00 26 1008.8
20260505001554 76 133 0.0 0.0 0.00 0.00 0.00 28 1008.8
20260505000106 76 133 0.0 0.0 0.00 0.00 0.00 28 1008.8
20260504234545 78 133 0.0 0.0 0.00 0.00 0.00 26 1008.7
20260504233045 80 133 0.0 0.0 0.00 0.00 0.00 23 1008.8
20260504231546 82 133 0.0 0.0 0.00 0.00 0.00 23 1008.7
20260504230100 82 133 0.0 0.0 0.00 0.00 0.00 23 1008.7
20260504224539 80 133 0.0 0.0 0.00 0.00 0.00 23 1008.7
20260504223035 77 133 0.0 0.0 0.00 0.00 0.00 26 1008.6
20260504221544 79 133 0.0 0.0 0.00 0.00 0.00 23 1008.7
20260504220033 81 133 0.0 0.0 0.00 0.00 0.00 23 1008.9
20260504214535 85 135 0.0 0.0 0.00 0.00 0.00 20 1009.0
20260504213034 84 136 0.0 0.0 0.00 0.00 0.00 22 1009.0
20260504211531 87 138 0.0 0.0 0.00 0.00 0.00 19 1009.1
20260504210029 90 138 0.0 0.0 0.00 0.00 0.00 19 1009.2
20260504204529 91 140 0.0 0.0 0.00 0.00 0.00 17 1009.3
20260504203029 93 145 0.0 0.0 0.00 0.00 0.00 18 1009.7
20260504201525 93 145 0.0 0.0 0.00 0.00 0.00 17 1009.9
20260504200024 90 145 0.0 0.0 0.00 0.00 0.00 19 1010.2
20260504194526 87 145 0.0 0.0 0.00 0.00 0.00 22 1010.4
20260504193025 85 145 0.0 0.0 0.00 0.00 0.00 22 1010.8
20260504191525 83 145 0.0 0.0 0.00 0.00 0.00 25 1011.1
20260504190021 84 145 0.0 0.0 0.00 0.00 0.00 26 1011.2
20260504184518 82 145 0.0 0.0 0.00 0.00 0.00 27 1011.4
20260504183016 81 145 0.0 0.0 0.00 0.00 0.00 28 1011.7
20260504181516 81 145 0.0 0.0 0.00 0.00 0.00 27 1011.9
20260504180015 78 145 0.0 0.0 0.00 0.00 0.00 31 1012.3
20260504174513 76 145 0.0 0.0 0.00 0.00 0.00 30 1012.5
20260504173013 75 145 0.0 0.0 0.00 0.00 0.00 33 1012.7
20260504171513 73 145 0.0 0.0 0.00 0.00 0.00 35 1013.1
20260504081539 41 145 0.0 0.0 0.00 0.00 0.00 68 1014.2
20260504050015 49 145 0.0 0.0 0.00 0.00 0.00 51 1013.3
20260504044506 51 145 0.0 0.0 0.00 0.00 0.00 46 1013.3
20260504043003 52 145 0.0 0.0 0.00 0.00 0.00 46 1013.1
20260504041602 54 145 0.0 0.0 0.00 0.00 0.00 43 1013.0
20260504040055 57 145 0.0 0.0 0.00 0.00 0.00 38 1012.8
20260504034554 61 145 0.0 0.0 0.00 0.00 0.00 35 1012.6
20260504033056 62 145 0.0 0.0 0.00 0.00 0.00 34 1012.4
20260504031553 61 145 0.0 0.0 0.00 0.00 0.00 34 1012.3
20260504030054 60 145 0.0 0.0 0.00 0.00 0.00 35 1012.0